sat.trackr.live / text

‹ back to catalog

STARLINK-30393

NORAD 57866 · 2023-144C

PAYLOAD ACTIVE UNKNOWN

§ Identity

Operator
Country
US
Launch date
2023-09-16
Launch site
AFETR
Launch vehicle
Mass (kg)
RCS (m²)

Purposes: comms

External: N2YO · Heavens-Above · Gunter

§ Orbital elements

Epoch: 2026-09-20T08:47:56.577120Z

Period
94.27 min
Inclination
43.0023°
Eccentricity
0.0001169
Mean motion
15.27559523 rev/d
Perigee alt
482.3 km
Apogee alt
483.9 km
Semi-major
6,861.2 km
B*
-4.5312e-5
RAAN
265.5208°
Arg perigee
284.2730°
Mean anomaly
75.7991°
Rev number
16,737

§ Raw data

STARLINK-303931 57866U 23144C   26263.36662705 -.00001508  00000+0 -45312-4 0  99942 57866  43.0023 265.5208 0001169 284.2730  75.7991 15.27559523167373

JSON: /api/v1/satellites/57866 · /tle

For live sub-satellite position, see the globe view (requires WebGL).

§ Visibility from observer

Set your observer location to see the next 7 days of passes ≥ 10°. The values pass through the URL so the page stays shareable.

No JS? Fill the form by hand. The geolocation button needs JavaScript.